QUETZAL-1 (45598 NORAD) Tracking and Keplerian Element Data

This shows tracking and keplerian element data for the satellite.

Feedback or suggestion? Click here.




ElementValue
Catalog45598
NameQUETZAL-1
Epoch Orbit413
Epoch Day145.85593817
Epoch Year2020
RAAN103.8431
Inclination51.642
Eccentricity0.0003366
Argument of Perigee12.9847
Mean Anonmoly347.1228
Mean Motion15.50053441
Decay Rate5.049E-05
L11 45598U 98067RL 20145.85593817 .00005049 00000-0 96203-4 0 9991
L22 45598 51.6420 103.8431 0003366 12.9847 347.1228 15.50053441 4133

Live tracking and technical data element details for QUETZAL-1 (NORAD 45598). QUETZAL-1 can be tracked NOW for your location showing map with azimuth and elevation plus other details from your city location.

Track the satellite on the map from your city or location and see movement details for azimuth, elevation, latitude, longitude, range, height, and movement on the map or in text.







IsCatalogInMostPopularTable: catalog: 45598, numindb: 7
Update: records affected: 1



GetName: 45598 QUETZAL-1

Hit Count: updated at: Tue, 26 May 2020 02:33:14 GMT